| time (UTC) | temp F | wind direction | speed knots | gust knots | rain 1hr in | rain 24hr in | rain mn in | humidity % | barometer mb |
| 20260504202649 | 71 | 59 | 0.9 | 1.7 | 0.00 | 0.00 | 0.00 | 40 | 1010.4 |
| 20260504202146 | 72 | 150 | 2.6 | 5.2 | 0.00 | 0.00 | 0.00 | 36 | 1010.4 |
| 20260504201643 | 69 | 165 | 2.6 | 4.3 | 0.00 | 0.00 | 0.00 | 40 | 1010.4 |
| 20260504201141 | 69 | 52 | 0.0 | 0.0 | 0.00 | 0.00 | 0.00 | 44 | 1010.4 |
| 20260504200637 | 69 | 52 | 0.0 | 0.0 | 0.00 | 0.00 | 0.00 | 44 | 1010.7 |
| 20260504200134 | 69 | 22 | 0.9 | 0.9 | 0.00 | 0.00 | 0.00 | 39 | 1010.6 |
| 20260504195630 | 70 | 57 | 0.0 | 0.0 | 0.00 | 0.00 | 0.00 | 48 | 1010.6 |
| 20260504195126 | 69 | 25 | 0.0 | 0.0 | 0.00 | 0.00 | 0.00 | 41 | 1010.5 |
| 20260504194623 | 71 | 25 | 0.9 | 1.7 | 0.00 | 0.00 | 0.00 | 38 | 1010.7 |
| 20260504194119 | 73 | 67 | 2.6 | 5.2 | 0.00 | 0.00 | 0.00 | 37 | 1010.9 |
| 20260504193615 | 70 | 12 | 0.0 | 0.0 | 0.00 | 0.00 | 0.00 | 41 | 1010.6 |
| 20260504193114 | 69 | 56 | 2.6 | 2.6 | 0.00 | 0.00 | 0.00 | 42 | 1010.9 |
| 20260504192612 | 69 | 355 | 0.9 | 1.7 | 0.00 | 0.00 | 0.00 | 40 | 1010.8 |
| 20260504192110 | 69 | 346 | 1.7 | 2.6 | 0.00 | 0.00 | 0.00 | 40 | 1010.9 |
| 20260504191608 | 69 | 85 | 1.7 | 1.7 | 0.00 | 0.00 | 0.00 | 42 | 1010.9 |
| 20260504191104 | 69 | 65 | 0.0 | 0.0 | 0.00 | 0.00 | 0.00 | 42 | 1010.7 |
| 20260504190600 | 69 | 78 | 0.9 | 0.9 | 0.00 | 0.00 | 0.00 | 44 | 1010.9 |
| 20260504190056 | 71 | 25 | 0.0 | 0.0 | 0.00 | 0.00 | 0.00 | 43 | 1010.8 |
| 20260504185553 | 69 | 106 | 4.3 | 6.1 | 0.00 | 0.00 | 0.00 | 38 | 1011.0 |
| 20260504185050 | 69 | 123 | 4.3 | 7.0 | 0.00 | 0.00 | 0.00 | 38 | 1011.1 |
| 20260504184545 | 69 | 56 | 2.6 | 4.3 | 0.00 | 0.00 | 0.00 | 43 | 1011.1 |
| 20260504184041 | 73 | 6 | 0.0 | 0.9 | 0.00 | 0.00 | 0.00 | 37 | 1010.9 |
| 20260504183538 | 73 | 66 | 1.7 | 2.6 | 0.00 | 0.00 | 0.00 | 42 | 1011.1 |
| 20260504183036 | 74 | 45 | 0.9 | 0.9 | 0.00 | 0.00 | 0.00 | 47 | 1011.2 |
| 20260504182533 | 71 | 55 | 6.1 | 8.7 | 0.00 | 0.00 | 0.00 | 37 | 1011.2 |
| 20260504182030 | 71 | 67 | 0.0 | 1.7 | 0.00 | 0.00 | 0.00 | 38 | 1011.4 |
| 20260504181527 | 72 | 74 | 1.7 | 2.6 | 0.00 | 0.00 | 0.00 | 39 | 1011.3 |
| 20260504181026 | 73 | 232 | 1.7 | 5.2 | 0.00 | 0.00 | 0.00 | 43 | 1011.4 |
| 20260504180524 | 72 | 195 | 1.7 | 1.7 | 0.00 | 0.00 | 0.00 | 40 | 1011.4 |
| 20260504180023 | 71 | 26 | 5.2 | 6.1 | 0.00 | 0.00 | 0.00 | 39 | 1011.5 |
| 20260504175519 | 70 | 9 | 2.6 | 4.3 | 0.00 | 0.00 | 0.00 | 38 | 1011.3 |
| 20260504175016 | 71 | 7 | 6.1 | 7.0 | 0.00 | 0.00 | 0.00 | 36 | 1011.5 |
| 20260504174514 | 72 | 120 | 6.1 | 8.7 | 0.00 | 0.00 | 0.00 | 39 | 1011.6 |
| 20260504174011 | 69 | 352 | 0.0 | 0.0 | 0.00 | 0.00 | 0.00 | 42 | 1011.6 |
| 20260504173508 | 69 | 229 | 1.7 | 1.7 | 0.00 | 0.00 | 0.00 | 40 | 1011.8 |
| 20260504173005 | 69 | 332 | 3.5 | 5.2 | 0.00 | 0.00 | 0.00 | 42 | 1011.6 |
| 20260504172501 | 69 | 10 | 2.6 | 5.2 | 0.00 | 0.00 | 0.00 | 41 | 1011.7 |
| 20260504171957 | 69 | 38 | 2.6 | 2.6 | 0.00 | 0.00 | 0.00 | 40 | 1011.9 |
| 20260504171454 | 69 | 341 | 0.9 | 0.9 | 0.00 | 0.00 | 0.00 | 44 | 1011.8 |
| 20260504170951 | 71 | 74 | 2.6 | 5.2 | 0.00 | 0.00 | 0.00 | 43 | 1012.0 |
| 20260504170447 | 68 | 67 | 0.0 | 0.9 | 0.00 | 0.00 | 0.00 | 46 | 1011.9 |
| 20260504160407 | 67 | 203 | 0.9 | 1.7 | 0.00 | 0.00 | 0.00 | 46 | 1012.6 |
| 20260504150831 | 64 | 58 | 2.6 | 5.2 | 0.00 | 0.00 | 0.00 | 42 | 1013.4 |
| 20260504150328 | 65 | 79 | 0.0 | 0.9 | 0.00 | 0.00 | 0.00 | 46 | 1013.3 |
| 20260504141258 | 62 | 308 | 3.5 | 4.3 | 0.00 | 0.00 | 0.00 | 47 | 1013.8 |
| 20260504140754 | 62 | 66 | 0.9 | 0.9 | 0.00 | 0.00 | 0.00 | 51 | 1013.8 |
| 20260504140250 | 62 | 183 | 1.7 | 2.6 | 0.00 | 0.00 | 0.00 | 50 | 1013.8 |
| 20260504130719 | 59 | 151 | 2.6 | 4.3 | 0.00 | 0.00 | 0.00 | 49 | 1014.0 |
| 20260504130215 | 58 | 140 | 4.3 | 7.0 | 0.00 | 0.00 | 0.00 | 47 | 1014.1 |
| 20260504120139 | 51 | 50 | 0.9 | 1.7 | 0.00 | 0.00 | 0.00 | 61 | 1014.3 |
| 20260504110606 | 45 | 47 | 0.0 | 0.0 | 0.00 | 0.00 | 0.00 | 76 | 1014.6 |
| 20260504100528 | 41 | 69 | 0.0 | 0.0 | 0.00 | 0.00 | 0.00 | 80 | 1014.3 |
| 20260504081921 | 46 | 57 | 0.0 | 0.0 | 0.00 | 0.00 | 0.00 | 68 | 1014.1 |
| 20260504081418 | 46 | 1 | 0.0 | 0.0 | 0.00 | 0.00 | 0.00 | 68 | 1014.2 |
| 20260504080914 | 46 | 43 | 0.0 | 0.0 | 0.00 | 0.00 | 0.00 | 72 | 1014.0 |
| 20260504080411 | 46 | 45 | 0.0 | 0.0 | 0.00 | 0.00 | 0.00 | 75 | 1014.1 |
| 20260504070339 | 43 | 55 | 0.0 | 0.0 | 0.00 | 0.00 | 0.00 | 85 | 1013.8 |
| 20260504050721 | 41 | 69 | 0.0 | 0.0 | 0.00 | 0.00 | 0.00 | 86 | 1014.6 |
| 20260504050218 | 41 | 69 | 0.0 | 0.0 | 0.00 | 0.00 | 0.00 | 85 | 1014.6 |
| 20260504045715 | 41 | 69 | 0.0 | 0.0 | 0.00 | 0.00 | 0.00 | 86 | 1014.7 |
| 20260504045210 | 41 | 69 | 0.0 | 0.0 | 0.00 | 0.00 | 0.00 | 84 | 1014.5 |
| 20260504044708 | 40 | 69 | 0.0 | 0.0 | 0.00 | 0.00 | 0.00 | 85 | 1014.7 |
| 20260504044205 | 40 | 69 | 0.0 | 0.0 | 0.00 | 0.00 | 0.00 | 87 | 1014.7 |
| 20260504043702 | 40 | 69 | 0.0 | 0.0 | 0.00 | 0.00 | 0.00 | 86 | 1014.6 |
| 20260504043158 | 40 | 69 | 0.0 | 0.0 | 0.00 | 0.00 | 0.00 | 85 | 1014.8 |
| 20260504042656 | 40 | 69 | 0.0 | 0.0 | 0.00 | 0.00 | 0.00 | 84 | 1014.6 |
| 20260504042152 | 40 | 69 | 0.0 | 0.0 | 0.00 | 0.00 | 0.00 | 85 | 1014.6 |
| 20260504041648 | 39 | 69 | 0.0 | 0.0 | 0.00 | 0.00 | 0.00 | 86 | 1014.8 |
| 20260504041144 | 39 | 68 | 0.0 | 0.0 | 0.00 | 0.00 | 0.00 | 87 | 1014.6 |
| 20260504040642 | 39 | 68 | 0.0 | 0.0 | 0.00 | 0.00 | 0.00 | 86 | 1014.5 |
| 20260504040139 | 39 | 66 | 0.0 | 0.0 | 0.00 | 0.00 | 0.00 | 87 | 1014.5 |
| 20260504035635 | 39 | 65 | 0.0 | 0.0 | 0.00 | 0.00 | 0.00 | 87 | 1014.5 |
| 20260504035132 | 38 | 65 | 0.0 | 0.0 | 0.00 | 0.00 | 0.00 | 87 | 1014.5 |
| 20260504034630 | 38 | 66 | 0.0 | 0.0 | 0.00 | 0.00 | 0.00 | 88 | 1014.3 |
| 20260504034126 | 38 | 64 | 0.0 | 0.0 | 0.00 | 0.00 | 0.00 | 87 | 1014.3 |
| 20260504033624 | 37 | 64 | 0.0 | 0.0 | 0.00 | 0.00 | 0.00 | 88 | 1014.6 |
| 20260504033121 | 37 | 64 | 0.0 | 0.0 | 0.00 | 0.00 | 0.00 | 89 | 1014.5 |
| 20260504032618 | 36 | 64 | 0.0 | 0.0 | 0.00 | 0.00 | 0.00 | 89 | 1014.5 |
| 20260504032115 | 36 | 64 | 0.0 | 0.0 | 0.00 | 0.00 | 0.00 | 88 | 1014.3 |
| 20260504031612 | 36 | 64 | 0.0 | 0.0 | 0.00 | 0.00 | 0.00 | 88 | 1014.5 |
| 20260504031108 | 36 | 64 | 0.0 | 0.0 | 0.00 | 0.00 | 0.00 | 88 | 1014.5 |
| 20260504030605 | 36 | 62 | 0.0 | 0.0 | 0.00 | 0.00 | 0.00 | 87 | 1014.5 |
| 20260504025559 | 37 | 62 | 0.0 | 0.0 | 0.00 | 0.00 | 0.00 | 87 | 1014.2 |
| 20260504025056 | 37 | 62 | 0.0 | 0.0 | 0.00 | 0.00 | 0.00 | 87 | 1014.3 |
| 20260504024553 | 37 | 62 | 0.0 | 0.0 | 0.00 | 0.00 | 0.00 | 86 | 1014.2 |
| 20260504024050 | 37 | 62 | 0.0 | 0.0 | 0.00 | 0.00 | 0.00 | 85 | 1014.3 |
| 20260504023546 | 37 | 62 | 0.0 | 0.0 | 0.00 | 0.00 | 0.00 | 85 | 1014.5 |
| 20260504023042 | 37 | 62 | 0.0 | 0.0 | 0.00 | 0.00 | 0.00 | 85 | 1014.3 |
| 20260504022538 | 37 | 59 | 0.0 | 0.0 | 0.00 | 0.00 | 0.00 | 86 | 1014.2 |
| 20260504022035 | 38 | 57 | 0.0 | 0.0 | 0.00 | 0.00 | 0.00 | 86 | 1014.5 |
| 20260504021532 | 38 | 57 | 0.0 | 0.0 | 0.00 | 0.00 | 0.00 | 85 | 1014.3 |
| 20260504021029 | 38 | 58 | 0.0 | 0.0 | 0.00 | 0.00 | 0.00 | 85 | 1014.4 |
| 20260504020526 | 38 | 55 | 0.0 | 0.0 | 0.00 | 0.00 | 0.00 | 84 | 1014.5 |
| 20260504020022 | 38 | 55 | 0.0 | 0.0 | 0.00 | 0.00 | 0.00 | 84 | 1014.6 |
| 20260504015519 | 38 | 53 | 0.0 | 0.0 | 0.00 | 0.00 | 0.00 | 84 | 1014.5 |
| 20260504015015 | 39 | 49 | 0.0 | 0.0 | 0.00 | 0.00 | 0.00 | 83 | 1014.6 |
| 20260504014511 | 39 | 49 | 0.0 | 0.0 | 0.00 | 0.00 | 0.00 | 84 | 1014.4 |
| 20260504014008 | 39 | 48 | 0.0 | 0.0 | 0.00 | 0.00 | 0.00 | 83 | 1014.4 |
| 20260504013506 | 39 | 46 | 0.0 | 0.0 | 0.00 | 0.00 | 0.00 | 83 | 1014.3 |
| 20260504013003 | 39 | 23 | 0.0 | 0.0 | 0.00 | 0.00 | 0.00 | 82 | 1014.3 |
| 20260504012500 | 40 | 23 | 0.0 | 0.0 | 0.00 | 0.00 | 0.00 | 82 | 1014.2 |
| 20260504011958 | 40 | 23 | 0.0 | 0.0 | 0.00 | 0.00 | 0.00 | 82 | 1014.3 |
| 20260504011454 | 40 | 23 | 0.0 | 0.0 | 0.00 | 0.00 | 0.00 | 79 | 1013.9 |
| 20260504010950 | 40 | 23 | 0.0 | 0.0 | 0.00 | 0.00 | 0.00 | 79 | 1013.9 |
| 20260504010446 | 40 | 23 | 0.0 | 0.0 | 0.00 | 0.00 | 0.00 | 81 | 1014.0 |
| 20260504005942 | 41 | 23 | 0.0 | 0.0 | 0.00 | 0.00 | 0.00 | 81 | 1014.0 |
| 20260504005439 | 41 | 22 | 0.0 | 0.0 | 0.00 | 0.00 | 0.00 | 78 | 1013.9 |
| 20260504004937 | 42 | 22 | 0.0 | 0.0 | 0.00 | 0.00 | 0.00 | 78 | 1013.8 |
| 20260504004434 | 42 | 22 | 0.0 | 0.0 | 0.00 | 0.00 | 0.00 | 74 | 1013.6 |
| 20260504003931 | 43 | 22 | 0.0 | 0.0 | 0.00 | 0.00 | 0.00 | 74 | 1013.5 |
| 20260504003427 | 44 | 22 | 0.0 | 0.0 | 0.00 | 0.00 | 0.00 | 75 | 1013.6 |
| 20260504002924 | 45 | 22 | 0.0 | 0.0 | 0.00 | 0.00 | 0.00 | 69 | 1013.7 |
| 20260504002421 | 45 | 22 | 0.0 | 0.0 | 0.00 | 0.00 | 0.00 | 75 | 1013.5 |
| 20260504001919 | 46 | 22 | 0.0 | 0.0 | 0.00 | 0.00 | 0.00 | 70 | 1013.6 |
| 20260504001416 | 46 | 22 | 0.0 | 0.0 | 0.00 | 0.00 | 0.00 | 70 | 1013.5 |
| 20260504000912 | 46 | 22 | 0.0 | 0.0 | 0.00 | 0.00 | 0.00 | 67 | 1013.4 |
| 20260504000410 | 46 | 22 | 0.0 | 0.0 | 0.00 | 0.00 | 0.00 | 67 | 1013.3 |
| 20260503235907 | 46 | 22 | 0.0 | 0.0 | 0.00 | 0.00 | 0.00 | 68 | 1013.4 |
| 20260503235405 | 47 | 22 | 0.0 | 0.0 | 0.00 | 0.00 | 0.00 | 68 | 1013.1 |
| 20260503234902 | 48 | 22 | 0.0 | 0.0 | 0.00 | 0.00 | 0.00 | 67 | 1013.1 |
| 20260503234359 | 49 | 22 | 0.0 | 0.0 | 0.00 | 0.00 | 0.00 | 56 | 1013.0 |
| 20260503233857 | 50 | 25 | 0.0 | 0.0 | 0.00 | 0.00 | 0.00 | 53 | 1013.0 |
| 20260503233353 | 50 | 25 | 0.0 | 0.0 | 0.00 | 0.00 | 0.00 | 47 | 1012.8 |
| 20260503232850 | 51 | 56 | 0.0 | 0.9 | 0.00 | 0.00 | 0.00 | 47 | 1012.8 |
| 20260503232347 | 52 | 24 | 0.0 | 0.0 | 0.00 | 0.00 | 0.00 | 44 | 1012.7 |
| 20260503231845 | 52 | 359 | 0.0 | 0.0 | 0.00 | 0.00 | 0.00 | 43 | 1012.6 |
| 20260503231342 | 52 | 7 | 0.0 | 0.0 | 0.00 | 0.00 | 0.00 | 44 | 1012.9 |
| 20260503230838 | 53 | 337 | 0.0 | 0.9 | 0.00 | 0.00 | 0.00 | 43 | 1012.7 |
| 20260503230335 | 53 | 7 | 0.0 | 0.0 | 0.00 | 0.00 | 0.00 | 42 | 1012.6 |
| 20260503225833 | 53 | 9 | 0.9 | 0.9 | 0.00 | 0.00 | 0.00 | 40 | 1012.7 |
| 20260503225328 | 53 | 342 | 2.6 | 4.3 | 0.00 | 0.00 | 0.00 | 38 | 1012.8 |
| 20260503224825 | 53 | 14 | 0.0 | 0.0 | 0.00 | 0.00 | 0.00 | 39 | 1012.7 |
| 20260503224322 | 53 | 340 | 0.9 | 2.6 | 0.00 | 0.00 | 0.00 | 39 | 1012.6 |
| 20260503223820 | 54 | 11 | 0.0 | 0.9 | 0.00 | 0.00 | 0.00 | 38 | 1012.5 |
| 20260503223317 | 54 | 352 | 0.9 | 1.7 | 0.00 | 0.00 | 0.00 | 36 | 1012.4 |
| 20260503222813 | 55 | 46 | 0.0 | 0.0 | 0.00 | 0.00 | 0.00 | 37 | 1012.4 |
| 20260503222311 | 56 | 346 | 3.5 | 7.0 | 0.00 | 0.00 | 0.00 | 35 | 1012.5 |
| 20260503221809 | 56 | 326 | 0.9 | 0.9 | 0.00 | 0.00 | 0.00 | 36 | 1012.5 |
| 20260503221308 | 56 | 34 | 0.0 | 0.0 | 0.00 | 0.00 | 0.00 | 39 | 1012.3 |
| 20260503220803 | 56 | 331 | 0.9 | 2.6 | 0.00 | 0.00 | 0.00 | 36 | 1012.3 |
| 20260503220300 | 56 | 47 | 2.6 | 4.3 | 0.00 | 0.00 | 0.00 | 37 | 1012.5 |
| 20260503215757 | 57 | 337 | 1.7 | 2.6 | 0.00 | 0.00 | 0.00 | 37 | 1012.4 |
| 20260503215254 | 56 | 335 | 1.7 | 2.6 | 0.00 | 0.00 | 0.00 | 35 | 1012.4 |
| 20260503214752 | 56 | 7 | 3.5 | 6.1 | 0.00 | 0.00 | 0.00 | 36 | 1012.3 |
| 20260503214249 | 56 | 310 | 0.9 | 1.7 | 0.00 | 0.00 | 0.00 | 38 | 1012.6 |
| 20260503213747 | 55 | 306 | 5.2 | 6.1 | 0.00 | 0.00 | 0.00 | 34 | 1012.6 |
| 20260503213244 | 56 | 319 | 0.0 | 0.0 | 0.00 | 0.00 | 0.00 | 38 | 1012.4 |
| 20260503212740 | 55 | 348 | 0.9 | 1.7 | 0.00 | 0.00 | 0.00 | 39 | 1012.5 |
| 20260503212238 | 57 | 235 | 0.9 | 0.9 | 0.00 | 0.00 | 0.00 | 37 | 1012.0 |
| 20260503211736 | 56 | 336 | 1.7 | 2.6 | 0.00 | 0.00 | 0.00 | 37 | 1012.3 |
| 20260503211231 | 56 | 299 | 2.6 | 4.3 | 0.00 | 0.00 | 0.00 | 38 | 1012.3 |
| 20260503210727 | 57 | 325 | 1.7 | 4.3 | 0.00 | 0.00 | 0.00 | 35 | 1012.6 |
| 20260503210225 | 57 | 307 | 2.6 | 2.6 | 0.00 | 0.00 | 0.00 | 37 | 1012.2 |
| 20260503205720 | 57 | 345 | 1.7 | 2.6 | 0.00 | 0.00 | 0.00 | 38 | 1012.0 |
| 20260503205216 | 57 | 17 | 0.0 | 0.0 | 0.00 | 0.00 | 0.00 | 40 | 1012.3 |
| 20260503204713 | 56 | 313 | 2.6 | 2.6 | 0.00 | 0.00 | 0.00 | 39 | 1012.5 |
| 20260503204211 | 56 | 303 | 2.6 | 2.6 | 0.00 | 0.00 | 0.00 | 39 | 1012.4 |
| 20260503203708 | 57 | 353 | 2.6 | 2.6 | 0.00 | 0.00 | 0.00 | 39 | 1012.5 |
| 20260503203205 | 56 | 79 | 0.0 | 0.0 | 0.00 | 0.00 | 0.00 | 40 | 1012.8 |